Regional Weather Roundup
Issued by NWS

Home | Current Version | Previous Version | Text Only | Print | Product List | Glossary On
Versions: 1 2 3 4 5 6 7 8 9 10 11 12 13 14 15 16 17 18 19 20 21 22 23 24 25 26 27 28 29 30 31 32 33 34 35 36 37 38 39 40 41 42 43 44 45 46 47 48 49 50
000
ASUS43 KLOT 010306
RWRIL

ILLINOIS REGIONAL WEATHER ROUNDUP
NATIONAL WEATHER SERVICE CHICAGO/ROMEOVILLE IL
1000 PM CDT THU JUL 31 2014

NOTE: "FAIR" INDICATES FEW OR NO CLOUDS BELOW 12,000 FEET WITH NO
SIGNIFICANT WEATHER AND/OR OBSTRUCTIONS TO VISIBILITY.

* THESE STATIONS ARE NOT UNDER NWS QUALITY CONTROL. THEY ALSO MAY NOT
  REPORT WEATHER SUCH AS PRECIPITATION OR FOG.

ILZ001-002-007-009-015-016-024-010400-
NORTHWEST ILLINOIS

CITY           SKY/WX    TMP DP  RH WIND       PRES   REMARKS
MOLINE         CLEAR     71  63  75 CALM      30.05R
STERLING*      CLEAR     63  59  88 CALM      30.05S
SAVANNA*       CLEAR     66  61  85 CALM      30.04S
$$

ILZ003-004-008-010-011-017-018-010400-
NORTH CENTRAL ILLINOIS

CITY           SKY/WX    TMP DP  RH WIND       PRES   REMARKS
ROCKFORD       CLEAR     67  59  75 S3        30.06R
FREEPORT*      CLEAR     65  60  84 SW7       30.07S
ROCHELLE*      CLEAR     62  59  90 CALM      30.06S
DE KALB*       CLEAR     65  58  76 SW3       30.07R
PERU*          CLEAR     71  63  74 S3        30.06S
$$

ILZ005-006-012>014-019>023-010400-
NORTHEAST ILLINOIS

CITY           SKY/WX    TMP DP  RH WIND       PRES   REMARKS
CHICAGO-OHARE  CLEAR     72  57  59 SW6       30.04R
CHICAGO-MIDWAY CLEAR     76  60  57 SW7       30.04R
AURORA         CLEAR     65  60  84 CALM      30.06R
LANSING*       MOCLDY    70  63  78 SW3       30.05S
JOLIET*        CLEAR     65  60  83 CALM      30.06S
WAUKEGAN       CLEAR     65  58  78 CALM      30.02R
DUPAGE AIRPORT CLEAR     68  60  75 CALM      30.05R
KANKAKEE*      CLEAR     67  63  86 SW3       30.07S
WHEELING       CLEAR     75  58  55 SW3       30.05R
MORRIS*        CLEAR     68  65  88 SW3       30.05S
ROMEOVILLE*    CLEAR     66  59  79 SW5       30.05S
NORTHERLY ISL    N/A     77  56  48 SW6         N/A
$$

LMZ740>746-010400-
SOUTHERN LAKE MICHIGAN

STATION/POSITION SKY/WX   TEMP    WIND        PRES    VSBY  WAVE
                          AIR SEA DIR/SP/G                  HT/PER
                          (F)     (DEG/KT/KT) (MB)    (MI)  (FT/S)
SOUTHERN BUOY              66 63  210/  8/  8 1016.5R         0
WAUKEGAN HARBOR            74     240/  5/  5   N/A
HARRISON CRIB              77     250/ 10/ 13   N/A
BURNHAM HARBOR             77     220/  2/  9   N/A
CALUMET HARBOR             74     210/  4/  6 1016.1S
BURNS HARBOR               76     220/  9/ 13   N/A
MICHIGAN CITY              73     180/  9/ 10   N/A
MICHIGAN CITY 6N           72 70  230/  8/ 10   N/A           1/ 2
ST. JOSEPH                 71 69  180/  8/ 10   N/A           1
$$

ILZ025>027-034>036-040-047-049-050-058-095>099-010400-
WEST-CENTRAL ILLINOIS

CITY           SKY/WX    TMP DP  RH WIND       PRES   REMARKS
QUINCY         CLEAR     69  61  75 SE6       30.06R
GALESBURG*     CLEAR     64  62  91 CALM      30.06S
MACOMB*        CLEAR     63  61  94 CALM      30.08S
JACKSONVILLE*  CLEAR     67  64  89 CALM      30.08S
PITTSFIELD*    CLEAR     67  63  87 CALM      30.08R
$$

ILZ028>032-037-038-041>044-048-051>054-059>061-010400-
CENTRAL ILLINOIS

CITY           SKY/WX    TMP DP  RH WIND       PRES   REMARKS
PONTIAC        CLEAR     64  63  94 CALM      30.07R FOG
DECATUR        CLEAR     67  62  84 CALM      30.08R
PEORIA         CLEAR     70  63  78 CALM      30.07R
LACON*         CLEAR     66  62  87 CALM      30.05S
LINCOLN*       CLEAR     68  63  84 CALM      30.05R
SPRINGFIELD    CLEAR     68  63  84 CALM      30.07R
TAYLORVILLE    CLEAR     64  61  88 CALM      30.08R FOG
$$

ILZ033-039-045-046-055>057-062-063-010400-
EAST-CENTRAL ILLINOIS

CITY           SKY/WX    TMP DP  RH WIND       PRES   REMARKS
CHAMPAIGN      CLEAR     66  62  87 CALM      30.09R
DANVILLE*      CLEAR     61  60  96 CALM      30.06S
RANTOUL*       CLEAR     67  62  83 CALM      30.09S
MATTOON        CLEAR     68  64  87 CALM      30.08R
PARIS*         CLEAR     62  61  96 CALM      30.09S
$$

ILZ079-100>102-010400-
SOUTHWEST ILLINOIS

CITY           SKY/WX    TMP DP  RH WIND       PRES   REMARKS
ALTON          PTCLDY    68  66  94 CALM      30.06R
BELLEVILLE     PTCLDY    69  65  86 CALM      30.06R
CAHOKIA*       CLEAR     68  64  87 CALM      30.06R
SPARTA*        CLEAR     68  63  83 CALM      30.08R
$$

ILZ064>066-069>071-074>076-080>082-084>086-088>090-092>094-010400-
SOUTH-CENTRAL ILLINOIS

CITY           SKY/WX    TMP DP  RH WIND       PRES   REMARKS
CARBONDALE     CLEAR     67  63  87 S5        30.08R
CAIRO*         CLEAR     67  62  84 CALM      30.07S
EFFINGHAM*     MOCLDY    70  59  68 CALM      30.08R
MARION         CLEAR     70  64  83 CALM      30.08R
MT. VERNON     CLEAR     66  61  82 CALM      30.09R
CENTRALIA*     CLEAR     64  60  86 S3        30.08R
SALEM*         CLEAR     69  64  85 CALM      30.08R
METROPOLIS*    PTCLDY    65  61  88 CALM      30.07S
$$

ILZ067-068-072-073-078-083-087-091-010400-
SOUTHEAST ILLINOIS

CITY           SKY/WX    TMP DP  RH WIND       PRES   REMARKS
LAWRENCEVILLE  CLEAR     69  65  86 CALM      30.07S
FLORA*         CLEAR     65  62  89 S3        30.08R
FAIRFIELD*     CLEAR     66  64  94 CALM      30.08R
HARRISBURG*    CLOUDY    71  66  86 CALM      30.09R
ROBINSON*      CLEAR     65  64  96 CALM      30.08S
CARMI*         PTCLDY    66  64  94 CALM      30.07R FOG
$$

ABBREVIATIONS USED IN REMARKS
   TC - TEMPERATURE IN CELSIUS
  WCI - WIND CHILL INDEX
   HX - HEAT INDEX
  VSB - VISIBILITY
$$




USA.gov is the U.S. government's official web portal to all federal, state and local government web resources and services.